Location: Boncourt
(49.6160°N, 3.9448°E)
Time: 12:24:36
(UTC+00:00)

USA 81 - Pass Details

Date: 09 February 2023
Orbit: 784 x 788 km, 85.0° (Epoch: 19 March)

Event Time Altitude Azimuth Distance (km) Brightness Sun altitude
Rises 18:39:27 0° 184° (S) 3,269 7.3 -17.7°
Reaches altitude 10° 18:41:48 10° 184° (S) 2,344 6.6 -18.0°
Maximum altitude 18:47:04 90° 98° (E) 795 4.0 -18.9°
Drops below altitude 10° 18:52:23 10° 6° (N) 2,359 6.5 -19.7°
Sets 18:54:45 0° 7° (N) 3,292 7.2 -20.1°
